Вернуться в каталог

USA 40 R/B DEB

LostHEO
NORAD 23395·DEBRIS·🇺🇸 United States

Запущен Aug 8, 1989 с Cape Canaveral Space Force Station

Loading…

Ближайшие Пролёты (ближайшие 24 часа)

TLE

УстаревшееSource: Space-Track

Эпоха: May 2, 2026, 16:25 UTC

1 23395U 89061BT  26122.68423624  .00013254  00000-0  64453-2 0  9993
2 23395  57.1117 129.9966 2973324 241.1065  86.0030  9.03058587 77520

Отслеживайте USA 40 R/B DEB в реальном времени с AllMySat

Download on the App Store